This is the latest recevied weather packets stored in our database for station/object YT1XN-8. If no packets are shown the sender has not sent any weather packets the latest 10 day(s).
| Time | Temp. | Humidity | Pressure | Rain* | Wind** | Luminosity | Snow |
|---|---|---|---|---|---|---|---|
| 1777806642 | 18.89° C | 47% | 1021.6 hPa | 0 mm | - | - | - |
| 1777806161 | 18.33° C | 49% | 1021.7 hPa | 0 mm | - | - | - |
| 1777806042 | 18.33° C | 48% | 1021.8 hPa | 0 mm | - | - | - |
| 1777805501 | 18.33° C | 47% | 1021.8 hPa | 0 mm | - | - | - |
| 1777805443 | 18.33° C | 47% | 1021.9 hPa | 0 mm | - | - | - |
| 1777804841 | 18.33° C | 49% | 1021.8 hPa | 0 mm | - | - | - |
| 1777804243 | 17.78° C | 46% | 1022 hPa | 0 mm | - | - | - |
| 1777804181 | 17.78° C | 47% | 1022.1 hPa | 0 mm | - | - | - |
| 1777803642 | 17.78° C | 48% | 1022.1 hPa | 0 mm | - | - | - |
| 1777803521 | 17.78° C | 48% | 1022.2 hPa | 0 mm | - | - | - |
| 1777803043 | 17.78° C | 46% | 1022.3 hPa | 0 mm | - | - | - |
| 1777802861 | 17.78° C | 47% | 1022.2 hPa | 0 mm | - | - | - |
| 1777802442 | 17.78° C | 47% | 1022.2 hPa | 0 mm | - | - | - |
| 1777802201 | 17.78° C | 47% | 1022.2 hPa | 0 mm | - | - | - |
| 1777801842 | 17.78° C | 52% | 1022.2 hPa | 0 mm | - | - | - |
| 1777801541 | 17.22° C | 49% | 1022.4 hPa | 0 mm | - | - | - |
| 1777801242 | 17.22° C | 48% | 1022.2 hPa | 0 mm | - | - | - |
| 1777800881 | 17.78° C | 49% | 1022.4 hPa | 0 mm | - | - | - |
| 1777800643 | 17.78° C | 48% | 1022.4 hPa | 0 mm | - | - | - |
| 1777800222 | 17.78° C | 48% | 1022.4 hPa | 0 mm | - | - | - |
| 1777800043 | 17.78° C | 50% | 1022.4 hPa | 0 mm | - | - | - |
| 1777799562 | 17.22° C | 50% | 1022.4 hPa | 0 mm | - | - | - |
| 1777799443 | 17.22° C | 51% | 1022.4 hPa | 0 mm | - | - | - |
| 1777798902 | 17.22° C | 52% | 1022.5 hPa | 0 mm | - | - | - |
| 1777798843 | 17.22° C | 53% | 1022.5 hPa | 0 mm | - | - | - |
* Rain latest hour (hover to see other rain measurements)
** Current wind speed in m/s (hover to see current wind gust speed)